GEFSCGP_prec_meanprecacc_366.txt.gz
Total_Precipitation_Accumulation
0.02 0.05 0.09 0.12 0.14 0.18 0.19 0.24 0.27 0.27 0.27 0.35 0.48 0.70 0.92 1.04 1.26 1.38 1.40 1.53 1.91 2.32 2.60 2.88 3.04 3.27 3.60 3.93 4.25 4.60 5.10 5.43 5.37 5.46 5.39 5.24 4.87 4.62 4.18 3.71 3.37 3.32 3.33 3.58
0.04 0.06 0.06 0.07 0.08 0.11 0.16 0.20 0.23 0.26 0.29 0.36 0.42 0.65 0.90 0.95 1.15 1.30 1.43 1.60 1.73 1.94 2.40 2.67 2.71 2.99 3.21 3.74 4.26 4.69 4.77 4.75 4.64 4.91 5.31 5.51 5.45 4.89 4.21 3.81 3.69 3.31 3.23 3.43
0.05 0.07 0.05 0.04 0.05 0.08 0.17 0.20 0.24 0.26 0.31 0.43 0.53 0.99 1.14 1.08 1.14 1.20 1.29 1.51 1.63 1.79 1.98 2.31 2.39 2.45 2.65 3.17 3.73 3.95 3.91 3.84 3.75 3.89 4.29 4.60 4.93 4.71 4.36 4.02 3.75 3.31 3.18 3.21
0.04 0.05 0.04 0.05 0.05 0.07 0.14 0.13 0.16 0.22 0.36 0.61 0.66 1.24 1.46 1.48 1.48 1.28 1.32 1.39 1.65 1.79 1.85 2.02 2.11 2.17 2.19 2.39 2.66 2.82 3.05 3.21 3.27 3.31 3.52 3.78 4.07 4.14 4.14 4.06 3.71 3.32 3.01 2.99
0.05 0.04 0.05 0.08 0.07 0.06 0.10 0.10 0.13 0.20 0.34 0.62 0.67 0.95 1.50 1.69 1.71 1.42 1.33 1.33 1.49 1.51 1.58 1.72 1.83 1.89 1.97 2.16 2.39 2.53 2.86 3.07 3.18 3.16 3.22 3.45 3.78 3.81 3.63 3.51 3.61 3.39 3.11 2.85
0.08 0.06 0.07 0.08 0.07 0.07 0.09 0.10 0.18 0.26 0.42 0.90 0.78 0.86 1.39 1.61 1.50 1.49 1.32 1.20 1.27 1.23 1.38 1.61 1.71 1.78 1.86 1.95 2.16 2.40 2.67 2.72 2.82 2.88 2.88 2.93 3.16 3.34 3.21 3.10 3.12 3.00 2.88 2.79
0.17 0.14 0.11 0.08 0.09 0.09 0.11 0.20 0.63 1.07 1.27 1.24 0.78 0.92 1.45 1.34 1.20 1.25 1.30 1.36 1.30 1.21 1.24 1.40 1.55 1.59 1.73 1.84 1.97 2.11 2.27 2.41 2.45 2.49 2.43 2.39 2.50 2.69 2.73 2.65 2.69 2.61 2.39 2.32
0.26 0.29 0.19 0.11 0.10 0.13 0.17 0.28 0.80 1.14 1.15 1.11 0.95 1.36 1.56 1.19 1.11 1.12 1.07 1.05 1.03 0.98 0.94 1.03 1.22 1.36 1.49 1.64 1.73 1.84 1.98 2.17 2.27 2.30 2.32 2.30 2.28 2.37 2.48 2.62 2.46 2.41 2.15 2.02
0.19 0.21 0.15 0.11 0.10 0.14 0.26 0.33 0.38 0.63 0.78 1.15 1.38 1.62 1.46 1.17 1.20 1.12 1.09 0.98 0.98 0.96 0.94 0.95 1.07 1.18 1.23 1.32 1.44 1.56 1.72 1.94 2.13 2.11 2.26 2.24 2.10 2.19 2.38 2.52 2.44 2.32 2.28 2.15
0.10 0.15 0.17 0.13 0.14 0.18 0.21 0.27 0.36 0.56 0.88 1.21 1.41 1.84 2.03 1.71 1.51 1.26 1.27 1.15 1.06 0.97 0.87 0.90 0.95 0.97 0.96 1.09 1.42 1.56 1.70 1.87 1.98 1.95 1.87 1.78 1.85 2.02 2.19 2.20 2.15 2.30 2.37 2.36
0.09 0.12 0.17 0.20 0.19 0.20 0.23 0.27 0.36 0.49 0.61 0.97 1.47 1.69 1.46 1.46 1.41 1.36 1.25 1.19 1.12 1.05 0.96 1.00 1.08 1.07 1.05 1.14 1.39 1.38 1.44 1.66 1.77 1.76 1.63 1.60 1.67 1.76 1.85 1.88 1.87 2.06 2.17 2.24
0.11 0.13 0.22 0.27 0.23 0.20 0.21 0.25 0.37 0.60 0.65 0.77 1.18 1.47 1.01 1.11 1.16 1.04 1.02 1.04 0.96 0.95 0.95 0.99 1.03 1.16 1.32 1.43 1.39 1.27 1.28 1.33 1.45 1.47 1.46 1.50 1.54 1.51 1.50 1.56 1.67 1.81 1.89 1.93
0.14 0.19 0.36 0.57 0.55 0.34 0.28 0.24 0.29 0.38 0.51 0.62 0.98 1.35 1.06 1.02 1.14 1.09 1.03 1.06 1.00 0.93 0.95 1.01 1.09 1.12 1.18 1.34 1.49 1.32 1.29 1.36 1.45 1.48 1.52 1.62 1.65 1.57 1.52 1.57 1.63 1.64 1.61 1.66
0.13 0.16 0.31 0.57 0.51 0.39 0.34 0.30 0.33 0.39 0.51 0.57 0.71 1.03 1.13 1.12 1.10 1.10 1.11 1.02 1.03 0.99 0.85 0.88 1.05 1.23 1.24 1.26 1.35 1.26 1.22 1.31 1.44 1.67 1.89 1.94 1.89 1.82 1.74 1.65 1.64 1.62 1.56 1.67
0.14 0.14 0.16 0.21 0.27 0.36 0.40 0.32 0.31 0.35 0.42 0.58 0.58 0.76 1.02 1.09 1.02 1.10 1.23 1.07 0.94 0.97 0.94 0.86 0.98 1.17 1.27 1.30 1.29 1.24 1.26 1.30 1.46 1.74 1.91 2.01 2.07 2.02 1.96 1.85 1.75 1.72 1.71 1.67
0.21 0.21 0.21 0.24 0.32 0.39 0.41 0.34 0.28 0.27 0.30 0.37 0.48 0.73 0.85 0.81 0.88 0.98 1.02 1.00 1.02 1.08 1.03 0.96 0.95 1.01 1.15 1.23 1.29 1.31 1.41 1.48 1.54 1.57 1.64 1.79 1.92 1.95 1.90 1.74 1.67 1.73 1.76 1.78
0.36 0.36 0.35 0.38 0.38 0.47 0.52 0.40 0.37 0.32 0.29 0.41 0.65 0.89 0.85 0.85 0.95 0.92 0.94 0.91 1.04 1.09 0.97 0.92 0.93 0.97 1.04 1.07 1.16 1.43 1.48 1.46 1.49 1.57 1.65 1.81 1.86 1.86 1.81 1.67 1.68 1.74 1.76 1.82
0.34 0.44 0.47 0.51 0.66 0.80 0.56 0.37 0.38 0.38 0.42 0.52 0.65 0.73 0.75 0.77 0.87 0.88 0.83 0.83 0.83 0.88 0.83 0.83 0.90 0.97 1.00 0.98 0.99 1.14 1.33 1.44 1.51 1.55 1.63 1.75 1.81 1.91 2.00 1.94 1.82 1.84 1.85 1.78
0.33 0.48 0.55 0.65 0.84 0.71 0.50 0.45 0.48 0.55 0.64 0.67 0.72 0.75 0.77 0.78 0.93 1.07 0.86 0.77 0.75 0.75 0.79 0.89 1.01 0.98 0.98 0.99 1.02 1.14 1.29 1.44 1.59 1.66 1.71 1.74 1.86 2.02 2.04 1.91 1.88 1.92 1.89 1.75
0.39 0.49 0.69 0.78 0.99 0.93 0.73 0.55 0.49 0.63 1.08 0.82 0.76 0.80 0.84 0.90 1.15 1.25 0.94 0.82 0.81 0.84 0.88 0.85 0.85 0.87 0.93 1.04 1.13 1.20 1.38 1.61 1.72 1.75 1.84 1.92 1.97 2.11 2.25 2.29 2.23 2.11 2.05 1.97
0.83 0.81 0.79 0.92 1.06 0.92 0.68 0.56 0.64 1.11 1.39 1.02 0.95 0.97 0.97 1.05 1.04 1.00 0.91 0.83 0.83 0.87 0.93 0.95 0.99 0.99 1.04 1.08 1.25 1.47 1.60 1.70 1.78 1.86 1.94 2.14 2.24 2.36 2.51 2.69 2.59 2.50 2.40 2.36
1.11 1.19 1.15 1.18 1.36 1.35 0.83 0.70 1.04 1.32 1.11 1.13 1.16 1.12 1.13 0.99 0.84 0.83 0.88 0.86 0.83 0.85 0.98 1.08 1.21 1.26 1.20 1.19 1.32 1.51 1.66 1.76 1.93 1.96 2.05 2.13 2.28 2.36 2.52 2.90 2.89 2.92 2.92 2.71
1.23 1.37 1.50 1.48 1.49 1.21 1.03 1.08 1.15 1.24 1.22 1.23 1.09 0.96 0.98 0.94 0.89 0.93 1.03 1.02 0.94 0.95 1.06 1.11 1.25 1.34 1.38 1.47 1.62 1.78 1.84 1.93 2.02 2.16 2.32 2.41 2.49 2.66 2.78 2.93 2.97 3.00 2.95 2.78
1.21 1.10 1.46 1.63 1.50 1.35 1.23 1.13 1.17 1.34 1.29 1.18 1.03 0.99 0.99 0.99 0.91 0.88 0.91 0.98 0.97 0.96 1.08 1.20 1.32 1.54 1.68 1.74 1.86 2.01 2.12 2.23 2.37 2.53 2.61 2.64 2.67 2.70 2.76 2.90 2.91 2.90 2.85 2.70
1.17 1.16 1.51 1.79 1.71 1.67 1.48 1.19 1.10 1.13 1.10 1.01 1.03 1.01 1.00 1.04 0.98 0.90 0.88 0.91 0.98 1.11 1.19 1.29 1.49 1.69 1.75 1.86 1.97 2.10 2.33 2.55 2.63 2.64 2.62 2.58 2.59 2.70 2.77 2.75 2.73 2.78 2.80 2.80
1.35 1.37 1.72 2.05 1.80 1.77 1.67 1.36 1.18 1.06 0.99 0.98 1.11 1.14 1.04 1.05 1.09 1.04 1.05 1.06 1.09 1.18 1.32 1.46 1.62 1.79 1.89 2.03 2.16 2.27 2.48 2.76 2.92 2.82 2.74 2.73 2.76 2.78 2.73 2.69 2.64 2.68 2.59 2.56

GEFSCGP_prec_meanprecacc_372.txt.gz
Total_Precipitation_Accumulation
0.02 0.05 0.09 0.13 0.15 0.19 0.20 0.25 0.29 0.29 0.28 0.35 0.49 0.71 0.93 1.05 1.26 1.39 1.41 1.58 1.92 2.33 2.62 2.89 3.04 3.28 3.61 3.94 4.27 4.64 5.16 5.50 5.42 5.51 5.44 5.28 4.92 4.66 4.22 3.75 3.41 3.36 3.36 3.61
0.04 0.06 0.06 0.07 0.08 0.11 0.17 0.20 0.24 0.27 0.29 0.38 0.43 0.66 0.92 0.96 1.16 1.30 1.43 1.61 1.74 1.94 2.41 2.68 2.71 3.00 3.22 3.75 4.27 4.72 4.81 4.80 4.69 4.98 5.38 5.56 5.50 4.95 4.25 3.84 3.73 3.36 3.26 3.45
0.05 0.07 0.05 0.04 0.05 0.08 0.18 0.21 0.25 0.27 0.32 0.44 0.56 1.02 1.18 1.10 1.14 1.20 1.29 1.51 1.64 1.80 1.98 2.32 2.39 2.46 2.67 3.19 3.75 3.96 3.94 3.88 3.79 3.95 4.36 4.66 4.98 4.77 4.41 4.06 3.79 3.35 3.21 3.24
0.04 0.05 0.04 0.05 0.05 0.07 0.15 0.13 0.16 0.22 0.37 0.62 0.68 1.29 1.51 1.52 1.49 1.28 1.32 1.39 1.65 1.80 1.85 2.03 2.12 2.18 2.20 2.41 2.68 2.83 3.06 3.24 3.30 3.35 3.56 3.83 4.14 4.20 4.20 4.12 3.76 3.36 3.04 3.02
0.05 0.04 0.05 0.08 0.07 0.07 0.11 0.10 0.13 0.20 0.34 0.63 0.71 1.03 1.57 1.73 1.74 1.42 1.33 1.33 1.49 1.51 1.59 1.73 1.84 1.90 1.98 2.17 2.40 2.53 2.87 3.08 3.20 3.19 3.27 3.50 3.83 3.85 3.67 3.56 3.66 3.43 3.14 2.88
0.08 0.06 0.07 0.08 0.07 0.07 0.09 0.11 0.18 0.26 0.43 0.93 0.81 0.90 1.49 1.64 1.51 1.49 1.33 1.20 1.27 1.24 1.39 1.61 1.72 1.79 1.86 1.95 2.16 2.40 2.68 2.72 2.83 2.89 2.90 2.96 3.19 3.36 3.23 3.13 3.16 3.04 2.92 2.83
0.17 0.14 0.11 0.08 0.09 0.09 0.11 0.21 0.65 1.10 1.29 1.27 0.80 0.93 1.48 1.35 1.21 1.25 1.31 1.36 1.32 1.23 1.25 1.41 1.57 1.60 1.73 1.84 1.97 2.12 2.27 2.42 2.46 2.50 2.44 2.41 2.52 2.70 2.75 2.67 2.73 2.65 2.43 2.36
0.26 0.29 0.19 0.11 0.10 0.13 0.17 0.29 0.84 1.21 1.21 1.16 0.97 1.40 1.58 1.20 1.12 1.12 1.07 1.05 1.03 0.98 0.95 1.04 1.24 1.37 1.50 1.65 1.73 1.84 1.98 2.18 2.29 2.31 2.33 2.32 2.30 2.38 2.50 2.64 2.49 2.45 2.18 2.04
0.19 0.21 0.15 0.11 0.10 0.14 0.27 0.34 0.39 0.65 0.81 1.21 1.43 1.67 1.49 1.18 1.20 1.12 1.09 0.98 0.98 0.97 0.95 0.95 1.07 1.19 1.24 1.33 1.44 1.56 1.73 1.95 2.15 2.13 2.28 2.26 2.12 2.22 2.41 2.55 2.46 2.34 2.31 2.17
0.10 0.15 0.17 0.13 0.14 0.18 0.21 0.27 0.37 0.57 0.90 1.25 1.46 1.92 2.10 1.73 1.54 1.28 1.28 1.15 1.06 0.98 0.88 0.91 0.95 0.98 0.97 1.11 1.44 1.58 1.72 1.89 2.00 1.97 1.89 1.79 1.87 2.05 2.22 2.23 2.18 2.33 2.39 2.38
0.09 0.12 0.17 0.20 0.19 0.21 0.23 0.28 0.37 0.50 0.62 0.99 1.51 1.78 1.51 1.48 1.44 1.38 1.26 1.20 1.13 1.05 0.97 1.01 1.09 1.07 1.06 1.15 1.41 1.41 1.47 1.69 1.80 1.79 1.65 1.62 1.70 1.80 1.88 1.91 1.90 2.10 2.21 2.28
0.11 0.13 0.22 0.27 0.23 0.20 0.21 0.25 0.37 0.60 0.65 0.79 1.22 1.53 1.06 1.14 1.18 1.06 1.03 1.06 0.97 0.96 0.96 1.01 1.05 1.18 1.34 1.47 1.44 1.32 1.33 1.38 1.49 1.52 1.50 1.54 1.58 1.55 1.53 1.59 1.71 1.85 1.94 1.97
0.14 0.19 0.36 0.57 0.58 0.36 0.28 0.24 0.29 0.39 0.51 0.63 1.00 1.40 1.11 1.05 1.17 1.09 1.04 1.07 1.01 0.95 0.97 1.03 1.12 1.16 1.21 1.38 1.53 1.38 1.36 1.42 1.49 1.53 1.58 1.69 1.73 1.63 1.57 1.61 1.68 1.69 1.65 1.69
0.13 0.16 0.31 0.59 0.53 0.40 0.34 0.31 0.33 0.39 0.52 0.59 0.72 1.06 1.19 1.17 1.14 1.12 1.12 1.03 1.04 1.01 0.88 0.91 1.08 1.26 1.27 1.28 1.38 1.29 1.24 1.34 1.47 1.71 1.95 2.03 1.99 1.89 1.79 1.69 1.69 1.67 1.61 1.71
0.14 0.14 0.17 0.21 0.28 0.36 0.40 0.32 0.31 0.35 0.42 0.58 0.59 0.78 1.08 1.16 1.04 1.11 1.24 1.07 0.94 0.99 0.96 0.88 1.00 1.20 1.29 1.32 1.31 1.26 1.28 1.31 1.48 1.77 1.95 2.06 2.13 2.08 2.00 1.87 1.76 1.73 1.74 1.70
0.21 0.21 0.21 0.24 0.32 0.39 0.41 0.34 0.28 0.28 0.31 0.37 0.50 0.77 0.89 0.83 0.89 0.99 1.03 1.01 1.02 1.09 1.04 0.97 0.97 1.03 1.17 1.26 1.31 1.33 1.42 1.49 1.56 1.60 1.67 1.82 1.96 2.00 1.94 1.76 1.68 1.75 1.78 1.82
0.36 0.36 0.35 0.38 0.38 0.47 0.53 0.40 0.37 0.32 0.30 0.41 0.66 0.92 0.89 0.87 0.96 0.93 0.94 0.92 1.04 1.09 0.98 0.93 0.95 0.98 1.05 1.09 1.18 1.44 1.49 1.47 1.50 1.59 1.67 1.84 1.90 1.89 1.85 1.70 1.70 1.76 1.79 1.84
0.34 0.44 0.47 0.51 0.66 0.81 0.57 0.38 0.38 0.38 0.42 0.52 0.66 0.74 0.76 0.77 0.88 0.89 0.84 0.84 0.83 0.89 0.84 0.84 0.92 0.99 1.01 1.00 1.01 1.16 1.34 1.45 1.52 1.57 1.65 1.77 1.84 1.95 2.04 1.97 1.85 1.86 1.87 1.81
0.33 0.48 0.55 0.65 0.86 0.74 0.53 0.46 0.48 0.55 0.65 0.67 0.72 0.76 0.78 0.79 0.94 1.08 0.87 0.78 0.76 0.76 0.80 0.89 1.01 0.99 0.98 0.99 1.02 1.14 1.30 1.44 1.59 1.67 1.73 1.76 1.89 2.07 2.08 1.94 1.92 1.96 1.92 1.79
0.39 0.49 0.69 0.79 1.01 0.96 0.77 0.57 0.49 0.63 1.08 0.82 0.76 0.81 0.84 0.91 1.17 1.27 0.95 0.82 0.82 0.84 0.89 0.85 0.85 0.87 0.93 1.04 1.13 1.21 1.39 1.61 1.74 1.76 1.86 1.93 1.99 2.14 2.28 2.32 2.27 2.16 2.10 2.02
0.83 0.81 0.79 0.92 1.07 0.94 0.69 0.57 0.64 1.12 1.40 1.03 0.95 0.98 0.97 1.06 1.05 1.01 0.92 0.83 0.83 0.88 0.94 0.96 0.99 1.00 1.05 1.09 1.26 1.49 1.62 1.71 1.79 1.87 1.95 2.16 2.26 2.39 2.54 2.73 2.63 2.55 2.46 2.41
1.11 1.19 1.16 1.18 1.37 1.36 0.83 0.70 1.05 1.33 1.12 1.14 1.16 1.13 1.14 1.00 0.85 0.84 0.90 0.88 0.84 0.85 0.99 1.09 1.22 1.27 1.21 1.20 1.33 1.53 1.68 1.77 1.95 1.97 2.06 2.15 2.29 2.37 2.53 2.93 2.93 2.96 2.96 2.76
1.23 1.38 1.52 1.51 1.51 1.22 1.03 1.09 1.16 1.26 1.23 1.24 1.09 0.97 0.99 0.95 0.90 0.94 1.04 1.03 0.95 0.95 1.07 1.12 1.26 1.35 1.39 1.47 1.63 1.80 1.85 1.94 2.04 2.18 2.34 2.43 2.51 2.68 2.80 2.96 3.01 3.03 2.98 2.82
1.21 1.10 1.49 1.66 1.52 1.36 1.24 1.14 1.19 1.35 1.31 1.19 1.04 0.99 1.00 0.99 0.92 0.88 0.92 0.98 0.97 0.96 1.08 1.20 1.32 1.54 1.68 1.75 1.87 2.02 2.13 2.24 2.38 2.54 2.64 2.67 2.71 2.73 2.79 2.95 2.94 2.93 2.88 2.74
1.18 1.16 1.52 1.82 1.73 1.68 1.48 1.19 1.11 1.14 1.11 1.03 1.04 1.01 1.00 1.04 0.98 0.90 0.88 0.91 0.98 1.11 1.20 1.30 1.50 1.70 1.76 1.87 1.99 2.12 2.35 2.57 2.65 2.67 2.65 2.61 2.63 2.74 2.82 2.80 2.77 2.81 2.83 2.83
1.36 1.38 1.73 2.06 1.81 1.78 1.67 1.36 1.18 1.07 1.00 0.99 1.12 1.14 1.04 1.05 1.09 1.04 1.05 1.06 1.10 1.18 1.32 1.47 1.64 1.80 1.90 2.05 2.18 2.30 2.50 2.80 2.99 2.88 2.80 2.78 2.81 2.82 2.77 2.73 2.68 2.71 2.61 2.57

GEFSCGP_prec_meanprecacc_378.txt.gz
Total_Precipitation_Accumulation
0.02 0.06 0.10 0.13 0.15 0.20 0.22 0.27 0.31 0.31 0.33 0.42 0.54 0.75 1.01 1.09 1.30 1.42 1.44 1.60 1.94 2.34 2.64 2.90 3.05 3.29 3.63 3.95 4.28 4.64 5.16 5.51 5.44 5.52 5.46 5.30 4.94 4.68 4.23 3.77 3.43 3.38 3.39 3.64
0.04 0.07 0.07 0.07 0.08 0.12 0.18 0.22 0.26 0.28 0.32 0.42 0.49 0.72 1.02 1.02 1.21 1.34 1.46 1.63 1.76 1.95 2.42 2.68 2.72 3.01 3.24 3.76 4.29 4.72 4.82 4.81 4.71 5.00 5.41 5.59 5.53 4.96 4.26 3.85 3.75 3.38 3.29 3.48
0.05 0.07 0.05 0.04 0.05 0.09 0.18 0.21 0.25 0.28 0.34 0.47 0.60 1.10 1.30 1.20 1.21 1.25 1.33 1.54 1.65 1.81 1.99 2.33 2.42 2.48 2.69 3.20 3.76 3.97 3.94 3.89 3.80 3.98 4.40 4.69 5.00 4.78 4.43 4.08 3.81 3.37 3.23 3.27
0.04 0.05 0.04 0.05 0.05 0.07 0.15 0.14 0.16 0.23 0.39 0.65 0.72 1.36 1.60 1.64 1.62 1.37 1.37 1.43 1.69 1.82 1.87 2.05 2.15 2.22 2.22 2.43 2.69 2.83 3.07 3.24 3.31 3.36 3.58 3.86 4.17 4.23 4.22 4.14 3.78 3.37 3.06 3.05
0.05 0.04 0.05 0.08 0.07 0.07 0.11 0.10 0.13 0.20 0.35 0.65 0.75 1.09 1.66 1.83 1.87 1.55 1.40 1.37 1.54 1.55 1.61 1.75 1.87 1.94 2.01 2.19 2.40 2.54 2.87 3.08 3.20 3.19 3.27 3.51 3.85 3.89 3.71 3.58 3.69 3.45 3.16 2.89
0.08 0.06 0.07 0.08 0.07 0.07 0.09 0.11 0.18 0.27 0.44 0.95 0.85 0.96 1.59 1.72 1.59 1.58 1.41 1.25 1.31 1.28 1.42 1.64 1.75 1.83 1.93 1.99 2.17 2.41 2.69 2.73 2.84 2.89 2.90 2.97 3.20 3.38 3.26 3.16 3.18 3.06 2.94 2.85
0.17 0.14 0.11 0.08 0.09 0.09 0.11 0.21 0.66 1.11 1.31 1.30 0.84 1.00 1.55 1.44 1.31 1.34 1.40 1.44 1.35 1.27 1.29 1.48 1.65 1.65 1.77 1.87 1.99 2.14 2.29 2.43 2.46 2.50 2.44 2.42 2.53 2.72 2.76 2.68 2.74 2.67 2.45 2.38
0.26 0.29 0.19 0.11 0.10 0.13 0.17 0.29 0.85 1.23 1.24 1.20 1.00 1.47 1.67 1.32 1.25 1.24 1.13 1.09 1.06 1.02 0.99 1.08 1.29 1.40 1.55 1.69 1.76 1.87 2.01 2.20 2.30 2.32 2.34 2.33 2.31 2.40 2.51 2.64 2.50 2.46 2.20 2.06
0.19 0.21 0.15 0.11 0.10 0.14 0.27 0.34 0.40 0.66 0.83 1.24 1.47 1.74 1.63 1.33 1.38 1.25 1.14 1.01 1.01 1.02 0.98 0.99 1.12 1.21 1.28 1.37 1.47 1.59 1.76 1.97 2.16 2.14 2.29 2.27 2.14 2.24 2.43 2.57 2.49 2.36 2.33 2.20
0.10 0.15 0.17 0.13 0.14 0.18 0.22 0.27 0.38 0.58 0.92 1.32 1.55 2.02 2.26 1.90 1.67 1.44 1.35 1.19 1.11 1.03 0.92 0.94 0.98 1.00 0.99 1.14 1.47 1.62 1.77 1.93 2.02 1.99 1.92 1.82 1.91 2.10 2.28 2.28 2.24 2.39 2.44 2.42
0.09 0.12 0.18 0.21 0.19 0.21 0.23 0.28 0.37 0.50 0.63 1.04 1.60 1.85 1.57 1.57 1.52 1.44 1.33 1.27 1.17 1.09 1.00 1.05 1.13 1.11 1.09 1.18 1.45 1.46 1.52 1.74 1.85 1.84 1.71 1.70 1.79 1.89 2.00 2.03 2.02 2.21 2.29 2.34
0.11 0.13 0.22 0.27 0.23 0.20 0.21 0.26 0.38 0.61 0.66 0.80 1.26 1.57 1.11 1.22 1.26 1.10 1.07 1.13 1.04 1.00 1.00 1.05 1.09 1.21 1.38 1.51 1.48 1.37 1.38 1.42 1.54 1.57 1.57 1.63 1.69 1.67 1.67 1.74 1.86 1.98 2.02 2.03
0.14 0.19 0.36 0.58 0.59 0.36 0.28 0.25 0.30 0.39 0.52 0.65 1.03 1.45 1.18 1.15 1.25 1.20 1.13 1.14 1.07 1.00 1.00 1.07 1.16 1.19 1.26 1.43 1.59 1.44 1.40 1.46 1.53 1.58 1.66 1.80 1.86 1.75 1.69 1.75 1.83 1.83 1.75 1.77
0.13 0.16 0.31 0.59 0.54 0.41 0.35 0.31 0.33 0.40 0.52 0.61 0.75 1.09 1.25 1.25 1.21 1.24 1.22 1.08 1.07 1.04 0.91 0.94 1.10 1.28 1.33 1.33 1.43 1.33 1.27 1.36 1.50 1.73 1.98 2.07 2.05 1.97 1.88 1.79 1.78 1.75 1.67 1.77
0.14 0.14 0.17 0.21 0.28 0.37 0.40 0.32 0.32 0.35 0.42 0.60 0.62 0.81 1.12 1.22 1.09 1.16 1.31 1.13 0.97 1.01 0.98 0.90 1.02 1.23 1.32 1.36 1.35 1.29 1.30 1.32 1.49 1.78 1.96 2.08 2.16 2.11 2.06 1.93 1.81 1.76 1.76 1.72
0.22 0.21 0.21 0.24 0.32 0.39 0.42 0.34 0.28 0.28 0.31 0.38 0.51 0.81 0.95 0.89 0.93 1.02 1.07 1.05 1.05 1.11 1.06 0.98 0.99 1.06 1.20 1.29 1.34 1.35 1.43 1.51 1.57 1.60 1.68 1.85 2.00 2.03 1.98 1.81 1.71 1.76 1.79 1.84
0.36 0.36 0.35 0.38 0.38 0.47 0.53 0.41 0.37 0.33 0.31 0.42 0.67 0.95 0.93 0.90 0.99 0.95 0.98 0.95 1.06 1.12 1.01 0.96 0.97 1.00 1.08 1.11 1.19 1.46 1.50 1.49 1.52 1.61 1.70 1.89 1.97 1.93 1.88 1.75 1.75 1.79 1.80 1.86
0.34 0.44 0.47 0.51 0.67 0.83 0.59 0.39 0.39 0.39 0.44 0.54 0.67 0.74 0.77 0.79 0.90 0.92 0.87 0.88 0.86 0.93 0.88 0.88 0.94 1.00 1.02 1.01 1.02 1.17 1.35 1.47 1.54 1.60 1.68 1.80 1.86 1.98 2.08 2.02 1.90 1.90 1.89 1.83
0.33 0.48 0.56 0.66 0.87 0.76 0.54 0.47 0.49 0.56 0.68 0.70 0.74 0.77 0.79 0.80 0.96 1.11 0.90 0.81 0.79 0.79 0.83 0.92 1.02 1.00 0.99 1.00 1.03 1.15 1.30 1.45 1.61 1.68 1.74 1.77 1.91 2.09 2.10 1.97 1.95 2.00 1.96 1.81
0.40 0.50 0.70 0.80 1.02 0.98 0.78 0.58 0.50 0.63 1.10 0.84 0.78 0.83 0.87 0.94 1.20 1.29 0.97 0.84 0.82 0.85 0.90 0.86 0.86 0.88 0.95 1.05 1.14 1.21 1.39 1.62 1.74 1.77 1.86 1.94 2.01 2.15 2.30 2.34 2.29 2.19 2.14 2.05
0.84 0.82 0.80 0.93 1.09 0.96 0.71 0.57 0.64 1.13 1.42 1.04 0.97 1.00 1.00 1.10 1.12 1.05 0.94 0.84 0.84 0.88 0.94 0.96 1.00 1.01 1.06 1.09 1.26 1.49 1.62 1.71 1.80 1.88 1.96 2.17 2.28 2.41 2.56 2.76 2.65 2.57 2.48 2.45
1.12 1.20 1.17 1.19 1.38 1.39 0.87 0.72 1.06 1.34 1.13 1.15 1.17 1.14 1.15 1.01 0.87 0.86 0.92 0.89 0.85 0.86 1.00 1.10 1.23 1.28 1.21 1.20 1.33 1.54 1.68 1.78 1.96 1.99 2.08 2.16 2.32 2.40 2.56 2.96 2.95 2.98 2.99 2.79
1.25 1.40 1.54 1.52 1.53 1.24 1.06 1.11 1.18 1.27 1.24 1.25 1.10 0.98 1.01 0.98 0.92 0.97 1.07 1.07 0.98 0.96 1.07 1.12 1.26 1.35 1.39 1.48 1.63 1.80 1.86 1.95 2.05 2.20 2.36 2.45 2.53 2.69 2.82 2.98 3.03 3.06 3.02 2.84
1.22 1.12 1.51 1.68 1.56 1.40 1.26 1.16 1.21 1.37 1.33 1.21 1.06 1.01 1.01 1.02 0.95 0.91 0.94 1.01 1.00 0.97 1.08 1.20 1.32 1.55 1.69 1.76 1.88 2.04 2.14 2.25 2.41 2.56 2.66 2.69 2.72 2.75 2.81 2.97 2.97 2.97 2.91 2.77
1.19 1.19 1.56 1.86 1.78 1.72 1.51 1.21 1.12 1.15 1.13 1.05 1.07 1.03 1.02 1.06 1.00 0.93 0.92 0.94 1.00 1.12 1.21 1.31 1.50 1.71 1.77 1.89 2.01 2.14 2.37 2.60 2.68 2.70 2.68 2.64 2.66 2.77 2.85 2.83 2.80 2.85 2.88 2.88
1.38 1.41 1.77 2.10 1.86 1.83 1.70 1.37 1.19 1.08 1.01 1.00 1.14 1.17 1.08 1.08 1.11 1.06 1.08 1.09 1.12 1.20 1.34 1.48 1.65 1.82 1.92 2.07 2.20 2.32 2.54 2.84 3.03 2.93 2.85 2.83 2.85 2.86 2.81 2.78 2.73 2.77 2.68 2.63

GEFSCGP_prec_meanprecacc_384.txt.gz
Total_Precipitation_Accumulation
0.02 0.06 0.10 0.14 0.16 0.21 0.22 0.27 0.32 0.32 0.34 0.44 0.55 0.77 1.04 1.12 1.31 1.44 1.45 1.62 1.96 2.36 2.65 2.92 3.06 3.31 3.65 3.98 4.29 4.66 5.18 5.52 5.45 5.54 5.48 5.32 4.97 4.70 4.26 3.78 3.46 3.41 3.42 3.66
0.04 0.07 0.07 0.07 0.08 0.12 0.18 0.22 0.26 0.28 0.33 0.43 0.51 0.76 1.04 1.04 1.23 1.36 1.48 1.64 1.78 1.98 2.43 2.70 2.73 3.03 3.26 3.78 4.30 4.74 4.83 4.82 4.72 5.02 5.43 5.61 5.56 4.99 4.28 3.87 3.76 3.40 3.30 3.50
0.05 0.07 0.05 0.05 0.05 0.09 0.18 0.22 0.25 0.28 0.34 0.47 0.64 1.17 1.33 1.22 1.23 1.26 1.34 1.55 1.68 1.84 2.01 2.35 2.44 2.50 2.70 3.22 3.77 3.98 3.96 3.91 3.81 3.99 4.42 4.73 5.02 4.82 4.44 4.09 3.82 3.38 3.24 3.28
0.04 0.05 0.04 0.05 0.05 0.07 0.15 0.14 0.17 0.23 0.39 0.66 0.73 1.37 1.61 1.66 1.64 1.38 1.39 1.46 1.72 1.85 1.90 2.08 2.18 2.25 2.25 2.46 2.72 2.86 3.08 3.26 3.32 3.37 3.59 3.89 4.19 4.24 4.24 4.15 3.79 3.39 3.07 3.06
0.05 0.04 0.05 0.08 0.07 0.07 0.11 0.11 0.14 0.21 0.35 0.65 0.75 1.10 1.66 1.84 1.88 1.57 1.43 1.40 1.57 1.58 1.65 1.79 1.92 1.98 2.06 2.23 2.44 2.57 2.90 3.11 3.22 3.21 3.28 3.52 3.87 3.92 3.76 3.63 3.72 3.48 3.18 2.92
0.08 0.06 0.07 0.08 0.07 0.07 0.09 0.11 0.19 0.28 0.44 0.95 0.86 0.97 1.60 1.72 1.60 1.60 1.46 1.30 1.36 1.33 1.47 1.72 1.84 1.89 1.98 2.03 2.21 2.44 2.71 2.75 2.85 2.91 2.91 2.98 3.21 3.41 3.31 3.24 3.24 3.11 2.98 2.88
0.17 0.14 0.11 0.08 0.09 0.09 0.11 0.21 0.66 1.11 1.31 1.30 0.85 1.01 1.56 1.45 1.32 1.37 1.44 1.50 1.42 1.33 1.35 1.57 1.73 1.69 1.80 1.89 2.02 2.19 2.32 2.45 2.48 2.51 2.46 2.43 2.55 2.75 2.80 2.72 2.78 2.72 2.50 2.42
0.26 0.29 0.19 0.11 0.10 0.13 0.17 0.29 0.85 1.23 1.24 1.20 1.00 1.48 1.68 1.32 1.27 1.27 1.17 1.13 1.11 1.05 1.02 1.15 1.32 1.43 1.57 1.71 1.80 1.92 2.04 2.22 2.31 2.34 2.37 2.36 2.36 2.45 2.55 2.67 2.53 2.49 2.24 2.12
0.19 0.21 0.15 0.11 0.10 0.14 0.27 0.34 0.40 0.66 0.83 1.24 1.48 1.75 1.64 1.34 1.40 1.28 1.17 1.03 1.04 1.04 1.01 1.02 1.14 1.23 1.30 1.39 1.50 1.63 1.79 2.00 2.18 2.16 2.32 2.31 2.20 2.30 2.48 2.62 2.54 2.44 2.43 2.30
0.10 0.15 0.17 0.13 0.14 0.18 0.22 0.27 0.38 0.58 0.92 1.33 1.56 2.03 2.27 1.91 1.69 1.47 1.37 1.21 1.13 1.05 0.93 0.96 1.01 1.01 1.01 1.15 1.50 1.68 1.82 1.97 2.06 2.03 1.96 1.86 1.95 2.15 2.36 2.38 2.36 2.53 2.58 2.56
0.09 0.12 0.18 0.21 0.20 0.21 0.23 0.28 0.37 0.50 0.63 1.05 1.60 1.86 1.58 1.57 1.53 1.45 1.34 1.28 1.19 1.11 1.02 1.07 1.16 1.12 1.11 1.20 1.47 1.50 1.56 1.78 1.89 1.88 1.75 1.73 1.82 1.94 2.08 2.12 2.13 2.35 2.43 2.47
0.11 0.13 0.22 0.27 0.23 0.20 0.21 0.26 0.38 0.61 0.66 0.81 1.26 1.58 1.11 1.22 1.27 1.10 1.08 1.14 1.06 1.01 1.01 1.06 1.11 1.24 1.41 1.53 1.51 1.39 1.40 1.45 1.57 1.60 1.59 1.65 1.71 1.71 1.73 1.81 1.94 2.05 2.09 2.10
0.14 0.19 0.36 0.58 0.59 0.36 0.28 0.25 0.30 0.39 0.52 0.65 1.04 1.46 1.19 1.15 1.26 1.20 1.14 1.15 1.09 1.01 1.02 1.08 1.17 1.22 1.29 1.45 1.62 1.47 1.42 1.49 1.55 1.59 1.67 1.81 1.87 1.79 1.75 1.80 1.87 1.86 1.78 1.80
0.14 0.16 0.31 0.59 0.54 0.41 0.35 0.31 0.33 0.40 0.52 0.61 0.75 1.10 1.25 1.27 1.22 1.25 1.22 1.09 1.08 1.05 0.92 0.95 1.12 1.31 1.36 1.36 1.48 1.38 1.29 1.39 1.52 1.75 1.99 2.08 2.07 2.01 1.93 1.84 1.82 1.78 1.70 1.80
0.14 0.15 0.17 0.21 0.28 0.37 0.41 0.33 0.32 0.36 0.43 0.60 0.63 0.81 1.13 1.24 1.09 1.17 1.32 1.14 0.98 1.02 0.99 0.93 1.05 1.26 1.36 1.40 1.40 1.32 1.32 1.34 1.51 1.79 1.97 2.09 2.18 2.15 2.09 1.96 1.83 1.79 1.79 1.75
0.22 0.21 0.21 0.24 0.32 0.39 0.42 0.34 0.28 0.28 0.32 0.38 0.52 0.81 0.95 0.89 0.94 1.03 1.08 1.06 1.06 1.13 1.08 1.01 1.02 1.09 1.23 1.32 1.37 1.38 1.45 1.51 1.58 1.62 1.69 1.86 2.01 2.04 2.00 1.83 1.74 1.79 1.81 1.86
0.36 0.37 0.35 0.38 0.39 0.48 0.53 0.41 0.37 0.33 0.31 0.43 0.67 0.95 0.93 0.91 1.00 0.97 0.99 0.96 1.07 1.13 1.03 0.97 0.99 1.02 1.10 1.13 1.22 1.48 1.52 1.50 1.54 1.62 1.71 1.90 1.97 1.95 1.90 1.77 1.77 1.81 1.82 1.88
0.34 0.44 0.47 0.51 0.68 0.83 0.59 0.39 0.39 0.39 0.45 0.54 0.67 0.74 0.77 0.79 0.91 0.93 0.89 0.89 0.87 0.94 0.89 0.90 0.96 1.02 1.04 1.02 1.03 1.18 1.36 1.48 1.55 1.60 1.68 1.80 1.87 1.99 2.09 2.03 1.91 1.91 1.91 1.84
0.33 0.48 0.56 0.66 0.88 0.76 0.54 0.47 0.49 0.56 0.68 0.70 0.74 0.77 0.80 0.81 0.97 1.12 0.91 0.83 0.80 0.80 0.84 0.93 1.04 1.01 1.01 1.01 1.04 1.16 1.31 1.46 1.62 1.69 1.74 1.77 1.91 2.10 2.11 1.98 1.96 2.01 1.97 1.82
0.40 0.50 0.70 0.80 1.02 0.99 0.79 0.58 0.50 0.64 1.11 0.84 0.79 0.83 0.88 0.94 1.21 1.30 0.98 0.85 0.84 0.87 0.91 0.87 0.87 0.90 0.97 1.08 1.16 1.23 1.41 1.63 1.76 1.78 1.87 1.95 2.02 2.16 2.31 2.35 2.30 2.20 2.15 2.06
0.84 0.82 0.80 0.93 1.09 0.96 0.71 0.57 0.65 1.13 1.42 1.04 0.98 1.00 1.00 1.11 1.13 1.06 0.95 0.85 0.85 0.90 0.96 0.98 1.02 1.03 1.08 1.12 1.29 1.51 1.64 1.73 1.81 1.89 1.97 2.17 2.28 2.42 2.57 2.77 2.66 2.58 2.49 2.46
1.12 1.20 1.17 1.19 1.38 1.39 0.88 0.72 1.06 1.35 1.14 1.15 1.18 1.15 1.15 1.02 0.88 0.87 0.93 0.90 0.86 0.87 1.01 1.11 1.24 1.28 1.22 1.21 1.34 1.54 1.70 1.79 1.97 2.00 2.08 2.17 2.32 2.40 2.56 2.96 2.96 2.99 3.00 2.80
1.25 1.40 1.55 1.53 1.53 1.24 1.06 1.11 1.18 1.27 1.25 1.25 1.11 0.99 1.01 0.99 0.93 0.98 1.08 1.08 1.00 0.98 1.09 1.15 1.28 1.36 1.40 1.48 1.64 1.81 1.87 1.96 2.06 2.20 2.36 2.46 2.54 2.71 2.83 3.00 3.05 3.07 3.02 2.85
1.23 1.13 1.52 1.70 1.57 1.41 1.28 1.17 1.21 1.37 1.33 1.21 1.06 1.01 1.02 1.03 0.96 0.93 0.96 1.03 1.02 1.00 1.12 1.24 1.36 1.57 1.71 1.77 1.90 2.05 2.16 2.27 2.41 2.57 2.67 2.70 2.74 2.77 2.83 2.99 2.99 2.98 2.92 2.78
1.20 1.20 1.57 1.88 1.80 1.73 1.52 1.22 1.13 1.16 1.13 1.05 1.07 1.04 1.03 1.07 1.01 0.94 0.93 0.95 1.02 1.15 1.24 1.33 1.53 1.73 1.79 1.91 2.02 2.15 2.38 2.60 2.69 2.71 2.70 2.65 2.67 2.78 2.86 2.84 2.81 2.87 2.90 2.90
1.39 1.42 1.79 2.12 1.88 1.85 1.71 1.38 1.20 1.08 1.01 1.01 1.14 1.18 1.08 1.09 1.12 1.07 1.09 1.11 1.14 1.23 1.36 1.50 1.67 1.84 1.93 2.08 2.21 2.33 2.55 2.85 3.04 2.94 2.86 2.84 2.86 2.87 2.83 2.80 2.75 2.79 2.71 2.67